Theta_e
349 351 348 348 348 346 346 345 344 344 342 341 341 342 340 339 340 339 338 352 350 349 351 352 354 355 356 356 355 355 355 356 356 354 352 351 351 352 352 352 352 351 351
353 351 353 351 348 349 347 347 346 348 349 346 345 346 343 342 341 341 339 341 350 348 349 352 353 355 356 356 356 356 356 354 355 354 353 352 351 351 352 353 352 352 351
354 350 350 349 349 350 353 352 351 350 348 346 345 345 342 342 342 343 345 343 343 346 348 351 352 353 355 356 356 356 357 354 354 353 352 351 351 350 351 352 351 351 351
358 362 353 354 353 356 354 351 350 349 346 346 346 346 342 345 342 343 347 347 345 343 349 350 352 354 355 356 357 356 356 355 353 352 351 351 351 350 350 349 346 346 346
357 358 357 356 363 360 359 357 355 353 350 349 346 344 344 343 341 340 342 346 347 347 348 353 351 351 353 354 356 356 356 353 351 351 351 351 351 350 346 345 344 343 344
358 359 356 360 362 357 354 355 355 352 352 349 346 343 347 348 349 347 345 346 344 346 347 347 346 346 348 351 353 354 354 351 350 350 350 348 349 349 344 343 343 347 344
360 358 356 359 359 357 354 356 353 353 351 349 343 343 343 345 345 347 340 339 339 344 341 341 341 340 342 347 347 348 351 351 351 349 346 345 345 346 347 347 345 344 343
361 357 357 357 356 354 355 356 354 349 349 349 342 340 333 337 340 342 337 334 334 337 338 339 340 343 344 343 344 347 349 349 348 347 345 344 344 345 345 346 345 344 344
359 359 361 359 353 355 354 354 352 347 342 347 346 338 329 325 330 337 335 335 336 338 338 342 344 346 345 344 342 338 337 339 342 343 343 343 344 346 345 345 344 343 343
358 357 358 358 352 353 352 353 355 351 348 343 342 344 342 338 328 323 334 338 340 336 340 341 340 341 339 339 338 333 335 335 335 336 339 342 345 344 343 344 345 344 344
358 357 357 354 352 353 350 352 350 349 349 343 340 339 339 338 336 329 325 329 335 340 341 342 338 337 334 331 330 331 332 332 333 333 333 338 343 344 345 346 344 343 345
356 356 355 353 352 349 351 349 349 349 347 344 344 341 337 334 332 329 327 328 327 332 335 336 336 335 337 331 330 330 328 328 327 328 329 333 336 339 342 346 346 347 346
353 353 352 350 349 350 350 349 347 346 344 342 342 341 341 338 335 332 330 328 327 330 330 334 332 331 334 332 328 328 330 328 326 325 326 328 331 331 335 340 343 344 344
350 350 348 346 346 345 345 344 343 342 344 342 340 339 337 338 336 335 331 327 322 323 327 328 332 330 331 333 329 330 327 327 325 323 323 323 326 327 329 330 334 338 339
345 346 345 344 343 342 342 341 339 339 340 338 336 337 337 336 336 334 334 331 325 319 320 325 325 332 331 330 330 327 326 327 325 322 322 322 322 323 325 326 328 329 330
341 339 339 339 339 340 339 340 339 338 336 335 336 334 334 334 333 333 332 331 328 325 319 326 327 325 330 332 331 328 328 327 326 324 322 321 320 320 320 321 322 323 325
339 336 337 336 334 333 333 333 331 331 328 329 330 328 327 328 328 329 330 329 327 326 320 323 327 328 327 328 329 331 331 331 331 326 323 321 319 318 318 318 318 319 321
330 329 329 327 326 326 327 325 323 323 322 321 321 323 322 321 322 321 320 320 319 321 322 318 320 321 323 326 325 326 328 330 329 327 321 321 319 318 319 318 317 316 316
325 323 323 321 319 318 319 318 313 312 312 313 316 318 319 318 317 316 313 310 310 312 313 312 313 317 319 322 323 326 326 326 329 329 322 319 318 317 316 316 315 314 313
320 319 319 317 316 314 311 310 309 308 309 310 313 314 315 316 311 312 309 309 309 307 307 307 307 308 309 312 314 312 313 319 322 327 324 322 322 320 318 317 316 316 312
318 317 316 316 316 306 303 304 306 306 306 306 310 314 315 313 310 309 307 307 306 303 304 304 304 305 306 306 307 308 306 308 311 314 313 314 315 317 320 318 320 319 314
316 315 314 312 312 303 299 300 301 303 305 307 308 312 312 309 310 308 308 307 306 303 302 301 300 300 301 303 304 303 302 301 300 309 307 306 309 309 312 315 314 314 311
314 312 312 311 304 301 297 297 300 303 308 308 309 309 308 308 305 305 304 304 305 305 305 304 302 302 302 303 304 302 301 300 299 303 303 300 304 304 307 310 309 308 308
311 311 311 308 305 299 297 296 296 307 308 308 309 308 308 303 297 298 300 301 303 304 306 305 304 304 304 305 303 302 301 300 301 302 303 297 302 301 305 306 307 306 305
312 310 308 307 305 300 295 295 297 304 305 305 307 305 303 301 295 295 299 300 302 303 304 302 301 300 298 297 299 299 298 297 296 299 302 300 300 300 303 305 307 307 304
306 306 304 305 303 300 294 294 295 301 300 301 307 300 297 297 295 295 298 300 299 300 300 301 303 303 303 303 302 303 300 297 297 297 302 300 301 301 299 304 305 307 308
Wind_Speed
5 5 5 5 8 8 9 8 8 8 9 10 8 6 6 6 6 3 3 12 13 13 12 13 13 13 13 14 15 16 16 17 17 16 15 15 16 17 18 17 17 16 16
4 4 4 3 4 4 6 9 7 5 6 4 5 6 7 6 5 5 3 3 10 12 14 16 16 16 16 16 15 15 15 16 17 16 15 14 17 18 18 17 19 19 18
6 6 4 5 5 4 5 2 2 1 1 2 4 5 5 6 5 6 6 4 5 16 16 16 15 15 14 14 15 13 13 13 15 16 15 16 17 16 16 17 16 17 21
8 6 5 5 6 5 4 4 4 4 4 4 2 3 3 3 5 7 6 5 5 5 7 14 13 10 11 12 14 13 13 13 15 16 17 16 15 15 14 9 8 16 17
12 7 5 5 4 0 0 1 1 1 3 2 4 4 4 5 6 8 6 4 4 4 3 6 12 10 10 11 13 13 14 12 14 16 17 18 17 17 12 11 19 17 17
12 9 7 5 4 3 3 2 3 3 3 3 5 6 3 3 2 3 4 5 9 13 8 3 1 3 9 11 13 13 16 17 15 13 13 13 13 14 14 18 18 17 22
9 8 6 5 5 4 4 5 4 3 2 4 5 4 4 5 6 2 4 4 6 10 6 3 5 5 6 13 14 18 18 16 14 13 11 8 7 9 13 17 18 17 22
7 7 5 5 7 6 6 5 2 2 4 3 2 0 3 3 2 3 4 4 7 5 6 8 11 8 8 3 5 6 13 12 13 12 12 11 11 12 12 11 14 13 12
6 4 4 4 5 5 4 5 4 6 4 3 5 3 3 4 2 2 5 5 7 3 5 13 8 1 2 3 2 6 8 7 8 6 5 6 6 8 7 14 12 13 12
6 6 5 4 4 3 5 3 4 5 4 6 4 4 5 2 3 4 3 5 5 7 11 10 3 2 2 4 4 4 4 5 5 7 7 6 2 4 6 8 11 9 9
6 6 6 6 5 3 4 3 4 4 3 4 4 3 3 4 7 6 6 6 4 2 3 4 2 2 4 3 1 3 0 1 1 6 10 10 2 1 4 9 6 7 7
3 4 4 5 4 4 4 4 4 3 2 4 4 3 4 4 5 6 8 6 5 7 5 3 3 2 3 4 2 3 5 3 4 3 5 11 5 4 4 5 7 7 6
3 4 3 4 3 3 4 2 1 2 3 4 5 3 3 4 5 0 2 4 4 3 3 7 3 3 4 4 5 9 6 3 4 4 8 10 6 6 5 5 6 7 9
5 6 7 7 6 6 5 5 4 4 4 4 5 4 3 4 4 3 2 3 5 3 3 7 3 3 3 4 5 8 4 7 7 9 9 9 8 8 9 5 6 7 7
7 7 6 7 6 4 4 5 3 3 4 3 4 4 3 4 3 4 3 3 3 3 3 5 3 5 2 2 4 5 5 7 8 9 14 10 7 8 7 6 8 6 8
8 8 7 6 4 5 4 3 1 1 3 4 4 5 4 3 4 3 3 3 3 2 4 2 4 3 5 4 7 6 7 5 7 12 14 8 9 8 7 9 9 8 9
8 9 6 5 5 6 6 6 6 5 6 5 5 6 7 7 5 5 3 3 2 2 4 3 2 2 2 6 6 8 7 5 5 12 17 12 11 11 7 7 7 9 10
8 7 6 5 5 5 5 5 8 9 8 8 8 7 6 6 6 6 6 7 6 7 4 7 5 4 5 6 8 8 6 6 5 9 10 11 11 10 11 11 12 15 16
8 8 6 7 7 8 8 10 10 10 11 10 9 8 7 7 6 7 6 7 7 8 9 8 9 5 5 4 5 6 6 6 7 13 15 11 12 12 12 14 17 20 19
7 7 6 7 8 10 11 11 10 9 10 10 10 7 7 5 5 6 5 5 7 8 8 8 9 8 7 7 6 8 8 4 7 8 9 13 11 18 23 21 21 20 18
7 8 7 7 7 11 9 9 8 8 8 9 10 9 6 12 11 8 5 6 6 7 7 8 8 9 8 10 10 9 9 9 9 5 8 8 8 6 6 13 16 19 20
8 8 7 7 9 9 9 12 10 8 8 8 8 8 6 13 12 9 6 6 6 6 7 8 9 9 11 10 8 8 9 10 9 6 9 10 7 8 9 8 6 12 8
7 6 6 6 13 10 12 12 11 6 5 7 8 6 7 8 9 8 10 12 10 10 11 7 8 8 9 8 8 9 9 9 10 10 10 13 11 12 10 10 13 12 10
5 4 5 12 9 10 11 15 18 6 5 6 4 3 3 7 7 8 9 8 9 8 6 5 5 8 9 10 10 10 11 11 10 9 8 11 9 11 10 10 15 15 12
4 8 9 10 9 9 14 13 11 8 5 6 7 8 10 7 7 9 8 8 9 8 10 13 13 13 12 12 10 6 8 9 11 11 8 9 9 10 9 9 9 13 13
8 7 8 7 10 7 9 10 12 8 9 7 3 7 12 8 7 8 6 7 8 9 11 11 10 9 9 9 10 6 6 8 9 9 8 7 8 6 6 6 7 7 4
Wind_Direction
215 186 196 204 181 198 190 209 216 202 210 218 225 246 259 268 282 297 305 177 196 206 204 209 212 218 230 238 239 241 242 242 239 239 229 228 232 236 236 236 237 233 225
228 190 198 236 248 219 203 200 210 208 194 210 236 234 233 238 254 282 273 259 200 213 218 220 218 218 222 231 239 240 237 235 234 234 232 226 232 236 235 237 236 235 225
213 199 198 202 240 236 270 288 336 347 283 273 280 272 266 252 244 241 240 238 226 218 228 221 223 224 233 234 240 251 246 237 236 231 228 227 233 236 233 241 249 252 251
222 189 222 211 212 216 217 202 220 229 224 228 277 300 309 272 260 255 236 230 231 262 240 223 226 229 242 250 249 243 242 234 235 232 226 230 230 237 231 231 242 280 268
196 217 220 243 258 36 303 8 2 88 325 313 299 280 267 259 251 263 273 302 252 274 298 217 207 228 249 263 263 254 252 246 244 236 230 226 219 220 200 209 226 225 225
187 188 224 256 222 179 243 253 263 288 287 289 291 289 274 283 317 272 335 1 356 352 330 354 301 281 265 250 260 274 273 267 260 262 245 240 235 233 198 219 235 237 239
182 175 195 220 228 198 205 224 220 244 297 282 292 294 311 306 293 17 29 334 301 219 233 284 284 256 247 237 231 258 268 266 267 262 271 254 250 228 220 224 226 226 245
141 149 185 230 224 214 205 210 200 230 237 254 232 205 283 294 323 270 255 245 263 301 301 255 241 227 235 243 285 296 261 270 257 268 273 256 234 241 251 263 257 245 232
142 162 186 227 267 230 194 167 206 223 246 250 181 193 259 228 300 235 266 250 246 205 267 269 244 227 308 240 270 52 339 336 317 324 339 334 289 241 228 256 256 257 251
161 175 207 247 252 208 262 165 195 209 218 248 260 215 246 306 253 300 291 285 249 226 227 242 294 2 70 83 82 85 356 15 355 343 353 347 9 328 297 280 266 239 222
186 191 196 238 253 263 276 220 221 213 203 255 265 258 230 255 248 246 275 281 310 321 268 234 194 242 141 118 103 201 232 263 351 1 351 317 329 213 231 247 234 217 191
179 189 202 195 215 237 256 281 257 260 235 258 284 298 254 252 272 266 254 262 269 293 295 239 195 181 188 150 178 276 296 4 27 48 330 314 331 309 254 234 218 191 177
154 189 204 192 216 225 278 296 305 302 292 276 274 275 261 263 284 266 309 290 263 292 289 283 236 205 183 164 182 217 237 309 296 286 264 261 269 261 255 222 200 199 204
114 94 72 74 67 50 49 34 20 10 358 358 338 340 327 316 328 316 285 302 305 276 284 279 280 202 171 174 200 214 216 233 248 251 234 239 242 232 241 245 243 221 226
90 88 72 71 56 44 39 22 28 358 337 340 319 323 310 289 303 288 321 313 288 299 292 306 316 346 124 177 222 204 210 247 255 225 235 226 233 222 237 248 249 245 238
102 95 81 76 83 82 58 355 31 100 16 334 336 338 339 332 325 339 338 325 309 295 296 335 317 319 1 2 317 314 266 243 271 302 297 241 214 238 230 233 233 234 248
105 104 121 119 95 70 34 14 358 29 7 1 346 6 0 353 356 344 325 296 295 306 293 285 300 240 237 258 277 245 257 263 262 247 250 232 195 194 216 255 272 259 244
71 63 58 63 62 59 57 26 19 12 3 360 357 353 354 349 350 344 356 3 345 337 313 292 292 288 262 220 227 237 238 245 239 257 228 243 246 233 209 209 241 251 239
71 54 44 44 36 19 13 52 32 12 359 346 343 344 334 339 332 28 9 5 343 344 335 330 318 305 299 297 276 231 229 242 245 247 260 236 226 221 225 227 222 229 242
61 65 41 45 37 41 43 30 25 6 353 339 326 324 315 339 31 16 7 353 5 343 335 329 321 321 322 320 338 344 340 322 277 264 262 257 238 233 236 236 230 237 237
47 45 38 35 38 65 40 26 8 357 337 318 310 302 15 61 55 48 18 8 357 344 326 327 323 330 334 345 345 352 340 334 327 320 337 337 337 327 287 247 247 241 232
45 34 30 28 40 68 39 32 16 334 321 309 301 27 54 50 28 27 347 319 296 303 310 317 314 320 316 327 327 333 329 331 319 324 336 315 317 310 317 317 354 282 260
45 35 27 29 70 58 28 11 359 324 329 13 16 26 0 23 29 9 349 334 317 291 244 272 289 288 296 302 308 309 310 302 291 296 306 297 306 300 297 293 301 311 240
45 39 42 70 74 52 29 19 346 359 5 356 341 357 2 75 33 4 328 327 322 336 329 348 328 321 316 315 304 294 296 290 285 275 262 278 281 276 283 285 285 280 270
66 64 61 51 62 54 35 10 351 324 9 342 0 20 82 61 19 5 338 331 334 332 347 338 330 313 306 299 290 304 287 284 281 281 279 279 281 280 278 276 277 272 284
58 64 74 66 81 77 46 13 11 360 9 345 24 75 53 47 10 2 347 336 341 341 325 321 316 316 313 304 292 260 278 280 279 284 253 255 267 277 287 252 259 264 273